Sunlight Mountain, CO

11:40 AM MDT on May 26, 2017 (GMT -0600)
Sunlight Mountain

Weather History for K5SM - July, 2013

Change the Weather History Date:

Thursday, July 18, 2013

  Actual Average (KRIL) Record (KRIL)
Temperature  
Mean Temperature 60 °F -  
Max Temperature 68 °F 89 °F 102 °F (1934)
Min Temperature 51 °F 53 °F 41 °F (1937)
Degree Days  
Heating Degree Days 6    
Growing Degree Days 10 (Base 50)    
Moisture  
Dew Point 47 °F    
Average Humidity 66    
Maximum Humidity 82    
Minimum Humidity 46    
Precipitation  
Precipitation 0.00 in - - ()
Sea Level Pressure  
Sea Level Pressure 30.64 in    
Wind  
Wind Speed 2 mph (NNE)    
Max Wind Speed 9 mph    
Max Gust Speed 16 mph    
Visibility 10 miles    
Events Rain , Thunderstorm    
Averages and records for this station are not official NWS values.
T = Trace of Precipitation, MM = Missing Value Source: NWS Daily Summary

Daily Weather History Graph

Daily Weather History Graph

Search for Another Location

Airport or City:

Trip Planner

Search our weather history database for the weather conditions in past years. The results will help you decide how hot, cold, wet, or windy it might be!

Date:

Astronomy

Jul. 18, 2013 Rise Set
Actual Time 5:57 AM MDT 8:33 PM MDT
Civil Twilight 5:26 AM MDT 9:04 PM MDT
Nautical Twilight 4:47 AM MDT 9:43 PM MDT
Astronomical Twilight 4:03 AM MDT 10:26 PM MDT
Moon 4:33 PM MDT (7/18) 1:49 AM MDT (7/18)
Length of Visible Light 15h 38m
Length of Day
14h 36m
Waxing Gibbous, 78% of the Moon is Illuminated
Jul 18
Waxing Gibbous
Jul 22
Full
Jul 29
Last Quarter
Aug 6
New
Aug 14
First Quarter

Hourly Weather History & Observations

Time (MDT) Temp. Dew Point Humidity Pressure Visibility Wind Dir Wind Speed Gust Speed Precip Events Conditions
12:01 AM 59.0 °F 42.8 °F 55% 30.67 in 10.0 mi Calm Calm - N/A Thunderstorm Overcast
12:21 AM 57.2 °F 42.8 °F 59% 30.67 in 10.0 mi Calm Calm - N/A   Overcast
12:41 AM 57.2 °F 42.8 °F 59% 30.67 in 10.0 mi Calm Calm - N/A   Overcast
1:00 AM 57.2 °F 44.6 °F 63% 30.67 in 10.0 mi Calm Calm - N/A Thunderstorm Overcast
1:21 AM 55.4 °F 46.4 °F 72% 30.67 in 10.0 mi Calm Calm - N/A Thunderstorm Thunderstorm
1:41 AM 55.4 °F 46.4 °F 72% 30.66 in 10.0 mi Calm Calm - N/A   Overcast
2:01 AM 55.4 °F 46.4 °F 72% 30.66 in 10.0 mi Calm Calm - N/A Thunderstorm Overcast
2:21 AM 55.4 °F 46.4 °F 72% 30.66 in 10.0 mi Calm Calm - N/A Thunderstorm Mostly Cloudy
2:41 AM 53.6 °F 46.4 °F 77% 30.66 in 10.0 mi Calm Calm - N/A   Scattered Clouds
3:01 AM 53.6 °F 46.4 °F 77% 30.66 in 10.0 mi Calm Calm - N/A   Clear
3:20 AM 53.6 °F 46.4 °F 77% 30.66 in 10.0 mi Calm Calm - N/A   Clear
3:40 AM 53.6 °F 46.4 °F 77% 30.66 in 10.0 mi Calm Calm - N/A   Scattered Clouds
4:01 AM 51.8 °F 44.6 °F 76% 30.65 in 10.0 mi Calm Calm - N/A   Scattered Clouds
4:21 AM 51.8 °F 44.6 °F 76% 30.65 in 10.0 mi Calm Calm - N/A   Clear
4:41 AM 51.8 °F 44.6 °F 76% 30.65 in 10.0 mi Calm Calm - N/A   Clear
5:01 AM 51.8 °F 44.6 °F 76% 30.65 in 10.0 mi Calm Calm - N/A   Clear
5:21 AM 51.8 °F 44.6 °F 76% 30.65 in 10.0 mi Calm Calm - N/A   Clear
5:41 AM 51.8 °F 44.6 °F 76% 30.65 in 10.0 mi Calm Calm - N/A   Clear
6:01 AM 53.6 °F 44.6 °F 72% 30.65 in 10.0 mi Calm Calm - N/A   Clear
6:21 AM 53.6 °F 44.6 °F 72% 30.65 in 7.0 mi Calm Calm - N/A   Clear
6:41 AM 53.6 °F 44.6 °F 72% 30.65 in 10.0 mi Calm Calm - N/A   Clear
7:01 AM 53.6 °F 44.6 °F 72% 30.65 in 10.0 mi Calm Calm - N/A   Clear
7:21 AM 55.4 °F 42.8 °F 63% 30.66 in 10.0 mi Calm Calm - N/A   Clear
7:40 AM 55.4 °F 44.6 °F 67% 30.66 in 10.0 mi Calm Calm - N/A   Clear
8:01 AM 57.2 °F 46.4 °F 67% 30.66 in 10.0 mi Calm Calm - N/A   Clear
8:21 AM 59.0 °F 46.4 °F 63% 30.66 in 10.0 mi Calm Calm - N/A   Clear
8:40 AM 59.0 °F 46.4 °F 63% 30.67 in 10.0 mi Calm Calm - N/A   Clear
9:01 AM 59.0 °F 48.2 °F 67% 30.67 in 10.0 mi NNE 3.5 mph - N/A   Clear
9:21 AM 59.0 °F 50.0 °F 72% 30.67 in 10.0 mi NNW 3.5 mph - N/A   Clear
9:41 AM 59.0 °F 46.4 °F 63% 30.67 in 10.0 mi NW 3.5 mph - N/A   Clear
10:00 AM 59.0 °F 46.4 °F 63% 30.67 in 10.0 mi NW 3.5 mph - N/A   Clear
10:21 AM 59.0 °F 46.4 °F 63% 30.66 in 10.0 mi NW 5.8 mph - N/A   Clear
10:41 AM 60.8 °F 50.0 °F 68% 30.66 in 10.0 mi NNW 8.1 mph - N/A   Scattered Clouds
11:01 AM 60.8 °F 50.0 °F 68% 30.66 in 10.0 mi NNW 3.5 mph - N/A   Scattered Clouds
11:21 AM 62.6 °F 51.8 °F 68% 30.66 in 10.0 mi North 4.6 mph - N/A   Scattered Clouds
11:41 AM 62.6 °F 50.0 °F 63% 30.66 in 10.0 mi NNE 3.5 mph - N/A   Clear
12:01 PM 64.4 °F 50.0 °F 59% 30.66 in 10.0 mi SE 3.5 mph - N/A Thunderstorm Scattered Clouds
12:21 PM 64.4 °F 50.0 °F 59% 30.66 in 10.0 mi Calm Calm - N/A   Scattered Clouds
12:41 PM 62.6 °F 51.8 °F 68% 30.65 in 10.0 mi Calm Calm - N/A Thunderstorm Thunderstorm
1:01 PM 62.6 °F 51.8 °F 68% 30.64 in 10.0 mi Calm Calm - N/A Thunderstorm Mostly Cloudy
1:21 PM 62.6 °F 50.0 °F 63% 30.64 in 10.0 mi NNW 4.6 mph - N/A Thunderstorm Overcast
1:41 PM 64.4 °F 50.0 °F 59% 30.63 in 10.0 mi NNW 8.1 mph - N/A   Scattered Clouds
2:01 PM 66.2 °F 50.0 °F 56% 30.63 in 10.0 mi NNW 8.1 mph - N/A   Scattered Clouds
2:22 PM 68.0 °F 51.8 °F 56% 30.63 in 10.0 mi NNW 8.1 mph - N/A   Scattered Clouds
2:41 PM 68.0 °F 51.8 °F 56% 30.62 in 10.0 mi NNW 6.9 mph - N/A   Scattered Clouds
3:01 PM 66.2 °F 51.8 °F 60% 30.60 in 10.0 mi NNW 6.9 mph 16.1 mph N/A   Scattered Clouds
3:21 PM 66.2 °F 50.0 °F 56% 30.60 in 10.0 mi NNW 5.8 mph - N/A Thunderstorm Clear
3:41 PM 68.0 °F 50.0 °F 52% 30.59 in 10.0 mi NNW 9.2 mph - N/A   Clear
4:02 PM 68.0 °F 46.4 °F 46% 30.60 in 10.0 mi NW 5.8 mph - N/A Thunderstorm Thunderstorm
4:22 PM 68.0 °F 46.4 °F 46% 30.61 in 10.0 mi North 4.6 mph - N/A Thunderstorm Clear
4:41 PM 64.4 °F 46.4 °F 52% 30.61 in 10.0 mi NW 4.6 mph - N/A Thunderstorm Thunderstorm
5:02 PM 64.4 °F 46.4 °F 52% 30.60 in 10.0 mi ESE 4.6 mph - N/A   Clear
5:22 PM 64.4 °F 48.2 °F 56% 30.59 in 10.0 mi ESE 4.6 mph - N/A   Clear
5:42 PM 62.6 °F 46.4 °F 55% 30.59 in 10.0 mi SE 4.6 mph - N/A   Clear
6:02 PM 62.6 °F 44.6 °F 52% 30.59 in 10.0 mi Calm Calm - N/A   Clear
6:22 PM 62.6 °F 46.4 °F 55% 30.59 in 10.0 mi Calm Calm - N/A Thunderstorm Scattered Clouds
6:42 PM 59.0 °F 46.4 °F 63% 30.59 in 10.0 mi Calm Calm - N/A Thunderstorm Thunderstorm
7:00 PM 59.0 °F 46.4 °F 63% 30.60 in 10.0 mi Calm Calm - N/A   Overcast
7:22 PM 55.4 °F 44.6 °F 67% 30.60 in 10.0 mi ENE 4.6 mph - N/A Thunderstorm Overcast
7:41 PM 55.4 °F 44.6 °F 67% 30.61 in 7.0 mi ENE 3.5 mph - N/A Rain , Thunderstorm Light Thunderstorms and Rain
8:02 PM 55.4 °F 42.8 °F 63% 30.63 in 7.0 mi Calm Calm - N/A Thunderstorm Overcast
8:21 PM 55.4 °F 42.8 °F 63% 30.63 in 10.0 mi East 3.5 mph - N/A Thunderstorm Overcast
8:41 PM 55.4 °F 44.6 °F 67% 30.62 in 10.0 mi Calm Calm - N/A   Overcast
9:02 PM 53.6 °F 44.6 °F 72% 30.64 in 10.0 mi East 3.5 mph - N/A   Overcast
9:21 PM 53.6 °F 46.4 °F 77% 30.64 in 10.0 mi Calm Calm - N/A   Overcast
9:42 PM 51.8 °F 46.4 °F 82% 30.64 in 7.0 mi ESE 3.5 mph - N/A   Drizzle
10:01 PM 51.8 °F 46.4 °F 82% 30.64 in 10.0 mi East 4.6 mph - N/A   Light Drizzle
10:22 PM 51.8 °F 46.4 °F 82% 30.64 in 10.0 mi ENE 6.9 mph - N/A   Overcast
10:42 PM 51.8 °F 46.4 °F 82% 30.64 in 10.0 mi East 5.8 mph - N/A   Overcast
11:01 PM 51.8 °F 46.4 °F 82% 30.65 in 10.0 mi ENE 4.6 mph - N/A Rain Light Rain
11:22 PM 51.8 °F 44.6 °F 76% 30.64 in 10.0 mi ESE 3.5 mph - N/A   Overcast
11:42 PM 53.6 °F 44.6 °F 72% 30.63 in 10.0 mi ESE 4.6 mph - N/A   Overcast